Hourly Data Report for October 20, 2014

All times are specified in Local Standard Time (LST). Add 1 hour to adjust for Daylight Saving Time where and when it is observed.

Metadata including Station Name, Province, Latitude, Longitude, Elevation, Climate ID, WMO ID, TC ID
MONTREAL MIRABEL INTL A
QUEBEC
Latitude: 45°40'50.000" N Longitude: 74°02'19.000" W Elevation: 82.30 m
Climate ID: 7034900 WMO ID: TC ID: YMX
Hourly Data Report for October 20, 2014
Temp Definition
°C

Dew Point Temp Definition
°C

Rel Hum Definition
%

Wind Dir Definition
10's deg
Wind Spd Definition
km/h

Visibility Definition
km

Stn Press Definition
kPa

Hmdx Definition

Wind Chill Definition

Weather Definition

00:00 Legend Double Dagger 2.7 -3.9 62 25 5 40.2 100.54 LegendNANA
01:00 Legend Double Dagger 2.6 -4.2 61 26 8 40.2 100.55 Mostly Cloudy
02:00 Legend Double Dagger 2.4 -4.4 61 26 9 40.2 100.55 LegendNANA
03:00 Legend Double Dagger 2.0 -5.0 60 31 8 40.2 100.55 LegendNANA
04:00 Legend Double Dagger 1.2 -4.9 64 24 5 40.2 100.54 Mostly Cloudy
05:00 Legend Double Dagger 0.7 -3.8 72 22 4 40.2 100.54 LegendNANA
06:00 Legend Double Dagger 0.6 -2.3 81 22 6 72.4 100.53 LegendNANA
07:00 Legend Double Dagger 0.4 -1.7 86 23 4 72.4 100.56 Mostly Cloudy
08:00 Legend Double Dagger 2.0 -1.4 78 24 7 72.4 100.58 LegendNANA
09:00 Legend Double Dagger 3.9 -3.6 58 22 11 72.4 100.58 LegendNANA
10:00 Legend Double Dagger 5.1 -2.3 59 25 10 72.4 100.55 Mostly Cloudy
11:00 Legend Double Dagger 4.8 -2.8 58 24 10 72.4 100.51 LegendNANA
12:00 Legend Double Dagger 5.1 -2.0 60 21 12 72.4 100.44 LegendNANA
13:00 Legend Double Dagger 5.5 -2.1 58 21 7 72.4 100.39 Cloudy
14:00 Legend Double Dagger 5.3 -2.3 58 24 5 72.4 100.39 LegendNANA
15:00 Legend Double Dagger 5.3 -2.5 57 0 1 72.4 100.39 LegendNANA
16:00 Legend Double Dagger 5.2 -1.3 63 17 5 72.4 100.39 Cloudy
17:00 Legend Double Dagger 5.1 -0.3 68 15 5 40.2 100.41 LegendNANA
18:00 Legend Double Dagger 4.9 0.9 75 36 2 40.2 100.43 LegendNANA
19:00 Legend Double Dagger 5.0 -0.2 69 5 4 40.2 100.44 Mostly Cloudy
20:00 Legend Double Dagger 5.0 0.0 70 5 5 40.2 100.46 LegendNANA
21:00 Legend Double Dagger 5.1 0.3 71 5 5 40.2 100.45 LegendNANA
22:00 Legend Double Dagger 5.0 0.0 70 5 5 40.2 100.44 Mostly Cloudy
23:00 Legend Double Dagger 4.8 1.1 77 4 7 40.2 100.43 Rain Showers

Notes on Data Quality.

Legend
  • E = Estimated
  • M = Missing
  • NA = Not Available
  • ‡ = Partner data that is not subject to review by the National Climate Archives